[[{"header":{"parameterUnit":"m.s-1","parameterCategory":1,"la1":30.2991,"la2":30.254,"lo1":-89.0895,"lo2":-89.0444,"dy":0.0017,"dx":0.0017,"nx":28,"ny":28,"refTime":"2024-07-04T03:00:00:Z","depth":0,"parameterNumber":2,"parameterNumberName":"U-component_of_WINDS"},"data":[0,0,0,0,0,0,0,0,0,0,0,0,0,0,0,0,0,0,0,0,0,0,0,0,0,0,0,0,0,0,0,0,0,0,0,0,0,0,0,0,0,0,0,0,0,0,0,0,0,0,0,0,0,0,0,0,0,0,3.7001,3.7003,0,3.7175,3.7177,3.7179,3.7152,3.7149,3.7147,3.7144,3.7324,3.7331,3.7339,0,0,0,0,0,0,0,0,0,0,0,0,0,3.6648,3.6655,3.7001,3.7003,3.7005,3.7174,3.7177,3.7179,3.7153,3.7149,3.7146,3.7142,3.7322,3.733,3.734,0,0,0,0,0,0,0,0,0,0,0,0,0,3.681,3.6657,3.7001,3.7013,3.7015,3.7174,3.7177,3.718,3.7154,3.7149,3.7145,3.7141,3.7319,3.733,3.7341,3.7499,0,0,3.7375,3.738,0,0,0,0,0,0,0,0,3.6801,3.6823,3.7009,3.7012,3.7015,3.7137,3.7119,3.7287,3.7155,3.7101,3.7144,3.7139,3.7266,3.7281,3.7323,3.7508,3.7515,3.7376,3.7383,3.7388,3.7391,0,0,0,0,0,0,0,3.679,3.6815,3.707,3.7011,3.7016,3.701,3.7028,3.715,3.7206,3.7106,3.7104,3.7125,3.7267,3.7313,3.7327,3.7518,3.7376,3.7386,3.7393,3.7398,3.7841,3.7846,0,0,0,0,0,0,3.6775,3.6806,3.7064,3.7075,3.6895,3.702,3.704,3.7103,3.7205,3.7216,3.7128,3.7123,3.7295,3.7314,3.7334,3.7526,3.7388,3.7399,3.7405,3.7836,3.7842,3.7848,0,0,0,0,0,0,3.6767,3.6798,3.7057,3.694,3.6973,3.7031,3.7101,3.7109,3.7154,3.7222,3.7232,3.7165,3.7293,3.7318,3.7458,3.7532,3.7404,3.7414,3.7831,3.7838,3.7845,3.7912,0,0,0,0,0,0,3.6757,3.6796,3.6856,3.6942,3.6979,3.7178,3.7106,3.7115,3.7174,3.7168,3.7259,3.727,3.7291,3.7441,3.7469,3.7545,3.7423,3.7824,3.7834,3.7843,3.7903,3.7921,3.7936,0,0,0,0,0,3.6745,3.6868,3.6859,3.689,3.7056,3.7183,3.7204,3.7225,3.718,3.7241,3.7285,3.7267,3.7519,3.7456,3.7487,3.7568,3.782,3.7831,3.7842,3.7896,3.7917,3.7935,0,0,0,0,0,0,3.679,3.688,3.6871,3.7025,3.7097,3.7178,3.7256,3.7247,3.7333,3.7325,3.7348,3.7369,3.7511,3.7554,3.7481,3.7727,3.7663,3.7681,3.7694,3.7714,3.773,3.7717,3.7432,0,0,0,0,0,3.6818,3.6913,3.6986,3.7116,3.7152,3.7198,3.7254,3.7264,3.7339,3.737,3.7423,3.7498,3.7593,3.7656,3.7748,3.7909,3.7929,3.798,3.7996,3.8009,3.8024,3.8113,3.8136,3.7885,3.7885,3.7885,0,0,3.6877,3.6938,3.6996,3.7127,3.7183,3.7281,3.7224,3.733,3.7404,3.7386,3.7522,3.7564,3.7648,3.78,3.7869,3.7839,3.8098,3.8023,3.8033,3.8042,3.8127,3.8151,3.8172,3.7892,3.7891,3.789,0,0,3.7035,3.709,3.7204,3.7261,3.7347,3.7377,3.7404,3.7488,3.7515,3.7651,3.764,3.7728,3.7893,3.7953,3.8005,3.8186,3.8173,3.8215,3.83,3.8386,3.8405,3.8423,3.8488,3.851,3.823,3.8231,3.8231,0,3.7097,3.7245,3.7264,3.7372,3.743,3.7417,3.7533,3.7588,3.77,3.7741,3.7706,3.7912,3.7968,3.8133,3.8177,3.822,3.8252,3.8205,3.8401,3.8419,3.8436,3.8497,3.8522,3.8235,3.8235,3.8234,3.8234,0,3.7317,3.742,3.7502,3.7609,3.7676,3.7788,3.7824,3.789,3.7894,3.7928,3.8067,3.8134,3.8239,3.8279,3.8285,3.8446,3.8425,3.8395,3.8332,3.8464,3.8522,3.8546,3.8242,3.824,3.8239,3.8238,0,0,3.7509,3.7625,3.7655,3.7703,3.7797,3.7877,3.7988,3.809,3.8146,3.8224,3.8318,3.8458,3.8431,3.849,3.8503,3.8578,3.8717,3.8539,3.8542,3.857,3.8898,3.892,3.8947,3.8709,3.8713,3.8717,3.8891,0,3.7675,3.7871,3.7891,3.8066,3.8161,3.8151,3.8248,3.8316,3.835,3.8437,3.8475,3.8573,3.853,3.8566,3.864,3.8684,3.8783,3.8672,3.8797,3.8801,3.8776,3.8977,3.9001,3.9162,3.8914,3.8918,3.8921,0,3.7896,3.7979,3.8163,3.8243,3.8284,3.8371,3.8466,3.8548,3.8626,3.8645,3.8712,3.8714,3.8829,3.8762,3.8921,3.8845,3.8897,3.8927,3.8933,3.8946,3.8869,3.8995,3.9214,3.9238,3.8957,3.8954,3.8952,0,3.8017,3.8175,3.8306,3.8348,3.8445,3.8506,3.8549,3.8622,3.8682,3.8766,3.8805,3.8901,3.8954,3.9029,3.9057,3.9005,3.9215,3.915,3.9235,3.9235,3.928,3.9277,3.951,3.9314,3.9314,3.9313,3.9313,0,3.8201,3.8314,3.8361,3.8442,3.8568,3.8591,3.8716,3.8756,3.8821,3.891,3.8907,3.899,3.9023,3.9112,3.9135,3.9264,3.9288,3.9307,3.9312,3.9307,3.9305,3.9342,3.9332,3.932,3.9318,3.9317,3.9316,0,3.8358,3.8394,3.8535,3.8615,3.8638,3.8728,3.8797,3.8875,3.8908,3.902,3.9047,3.91,3.9204,3.924,3.9367,3.9382,3.9532,3.9527,3.9505,3.9506,3.9589,3.9581,3.9855,3.9892,3.9671,3.9673,3.9675,0,3.8473,3.856,3.8649,3.8707,3.8753,3.8847,3.8908,3.8934,3.8998,3.9093,3.9159,3.9263,3.9347,3.9514,3.9564,3.9661,3.9658,3.9748,3.9673,3.9666,3.966,3.9654,3.9663,3.9761,3.9764,3.9766,3.9767,0,3.8673,3.8687,3.8774,3.8869,3.8941,3.9017,3.909,3.9139,3.9176,3.9248,3.9354,3.9419,3.9548,3.965,3.9749,3.9795,3.9788,3.979,3.9815,3.9811,3.9795,3.9805,3.9543,3.9784,3.9782,3.9781,3.978,3.9779,3.8813,3.8889,3.8964,3.9062,3.9119,3.9188,3.9265,3.9307,3.9396,3.9502,3.9512,3.9627,3.9702,3.9834,3.9884,3.9974,3.995,3.9986,3.9995,4.0003,4.001,3.9781,3.9993,3.9992,3.9992,3.9991,3.9991,0,3.9013,3.906,3.915,3.9252,3.9329,3.9315,3.9395,3.9461,3.9561,3.9631,3.9714,3.9836,3.9935,3.9993,4.0093,4.0154,4.0153,4.0179,4.0175,4.0186,4.0026,3.9994,4.0178,4.0178,4.0178,4.0178,4.0178,4.0178,3.9126,3.9255,3.9277,3.9434,3.9481,3.9592,3.9639,3.9703,3.9759,3.9895,3.9977,4.0013,4.0079,4.0183,4.0274,4.0289,4.0326,4.0354,4.0366,4.0216,4.0197,4.0179,4.0149,4.0362,4.0362,4.0518,4.052,4.0521]},{"header":{"parameterUnit":"m.s-1","parameterCategory":1,"la1":30.2991,"la2":30.254,"lo1":-89.0895,"lo2":-89.0444,"dy":0.0017,"dx":0.0017,"nx":28,"ny":28,"refTime":"2024-07-04T03:00:00:Z","depth":0,"parameterNumber":3,"parameterNumberName":"V-component_of_WINDS"},"data":[0,0,0,0,0,0,0,0,0,0,0,0,0,0,0,0,0,0,0,0,0,0,0,0,0,0,0,0,0,0,0,0,0,0,0,0,0,0,0,0,0,0,0,0,0,0,0,0,0,0,0,0,0,0,0,0,0,0,-0.3908,-0.3908,0,-0.3905,-0.3905,-0.3905,-0.3899,-0.3899,-0.3899,-0.3898,-0.3895,-0.3895,-0.3895,0,0,0,0,0,0,0,0,0,0,0,0,0,-0.391,-0.391,-0.3908,-0.3908,-0.3908,-0.3905,-0.3905,-0.3905,-0.3899,-0.3899,-0.3899,-0.3898,-0.3895,-0.3895,-0.3895,0,0,0,0,0,0,0,0,0,0,0,0,0,-0.3908,-0.391,-0.3908,-0.3905,-0.3905,-0.3905,-0.3905,-0.3905,-0.3899,-0.3899,-0.3899,-0.3898,-0.3895,-0.3895,-0.3895,-0.3898,0,0,-0.3895,-0.3895,0,0,0,0,0,0,0,0,-0.3909,-0.3908,-0.3906,-0.3905,-0.3905,-0.3902,-0.3904,-0.3903,-0.3899,-0.3901,-0.3898,-0.3898,-0.3897,-0.3897,-0.3897,-0.3898,-0.3898,-0.3895,-0.3895,-0.3895,-0.3895,0,0,0,0,0,0,0,-0.3909,-0.3908,-0.3907,-0.3906,-0.3905,-0.3904,-0.3903,-0.3904,-0.39,-0.3901,-0.39,-0.39,-0.3897,-0.3897,-0.3897,-0.3898,-0.3895,-0.3895,-0.3895,-0.3895,-0.3902,-0.3902,0,0,0,0,0,0,-0.3909,-0.3909,-0.3907,-0.3907,-0.3906,-0.3904,-0.3903,-0.3903,-0.39,-0.39,-0.39,-0.39,-0.3897,-0.3897,-0.3897,-0.39,-0.3895,-0.3895,-0.3895,-0.3902,-0.3902,-0.3902,0,0,0,0,0,0,-0.3909,-0.3909,-0.3907,-0.3908,-0.3907,-0.3904,-0.3904,-0.3903,-0.3903,-0.39,-0.3899,-0.3901,-0.3897,-0.3897,-0.3898,-0.39,-0.3895,-0.3895,-0.3902,-0.3902,-0.3902,-0.3908,0,0,0,0,0,0,-0.3909,-0.3909,-0.391,-0.3908,-0.3907,-0.3909,-0.3904,-0.3903,-0.3903,-0.3902,-0.39,-0.3899,-0.3897,-0.3898,-0.3898,-0.39,-0.3895,-0.3901,-0.3902,-0.3902,-0.3908,-0.3909,-0.3909,0,0,0,0,0,-0.391,-0.3912,-0.3911,-0.391,-0.3909,-0.3909,-0.3909,-0.3905,-0.3903,-0.3904,-0.3902,-0.3899,-0.39,-0.3898,-0.3898,-0.39,-0.3901,-0.3902,-0.3902,-0.3907,-0.3908,-0.3909,0,0,0,0,0,0,-0.3915,-0.3912,-0.391,-0.3912,-0.3911,-0.3908,-0.3909,-0.3907,-0.3906,-0.3906,-0.3902,-0.3901,-0.3903,-0.3902,-0.39,-0.3904,-0.39,-0.3901,-0.3904,-0.3905,-0.3906,-0.3906,-0.3895,0,0,0,0,0,-0.3917,-0.3917,-0.3914,-0.3916,-0.3915,-0.3912,-0.3912,-0.391,-0.3909,-0.3908,-0.3906,-0.3905,-0.3905,-0.3905,-0.3905,-0.3908,-0.3907,-0.3909,-0.391,-0.3911,-0.3911,-0.3912,-0.3913,-0.3904,-0.3904,-0.3904,0,0,-0.3919,-0.3918,-0.3918,-0.3917,-0.3916,-0.3916,-0.3912,-0.3913,-0.3913,-0.3908,-0.3909,-0.3908,-0.3907,-0.3909,-0.391,-0.3908,-0.3914,-0.3911,-0.3912,-0.3912,-0.3913,-0.3914,-0.3915,-0.3904,-0.3904,-0.3904,0,0,-0.3925,-0.3924,-0.3925,-0.3924,-0.3923,-0.3921,-0.3921,-0.3919,-0.3918,-0.3919,-0.3916,-0.3916,-0.3916,-0.3915,-0.3915,-0.3921,-0.3918,-0.3921,-0.3925,-0.3926,-0.3927,-0.3928,-0.3929,-0.393,-0.3921,-0.3921,-0.3921,0,-0.3929,-0.3929,-0.3926,-0.3927,-0.3927,-0.3923,-0.3925,-0.3924,-0.3922,-0.3922,-0.392,-0.392,-0.3919,-0.3921,-0.3922,-0.3922,-0.3923,-0.3921,-0.3927,-0.3928,-0.3928,-0.393,-0.3931,-0.3921,-0.3921,-0.3921,-0.3921,0,-0.3934,-0.3934,-0.3936,-0.3935,-0.3934,-0.3936,-0.3933,-0.3933,-0.3931,-0.393,-0.3931,-0.393,-0.3929,-0.3929,-0.3927,-0.3931,-0.393,-0.3928,-0.3924,-0.3929,-0.3931,-0.3932,-0.3922,-0.3922,-0.3922,-0.3922,0,0,-0.3942,-0.394,-0.394,-0.394,-0.3938,-0.3938,-0.394,-0.3939,-0.3939,-0.3939,-0.394,-0.394,-0.3938,-0.3937,-0.3935,-0.3937,-0.3941,-0.3934,-0.3934,-0.3935,-0.3945,-0.3947,-0.3948,-0.394,-0.394,-0.394,-0.3945,0,-0.3947,-0.3949,-0.3946,-0.3949,-0.3949,-0.3946,-0.3947,-0.3946,-0.3945,-0.3945,-0.3944,-0.3944,-0.3941,-0.3941,-0.3942,-0.3941,-0.3943,-0.394,-0.3941,-0.3941,-0.394,-0.3948,-0.395,-0.3955,-0.3946,-0.3946,-0.3946,0,-0.3953,-0.3952,-0.3955,-0.3953,-0.3953,-0.3954,-0.3954,-0.3954,-0.3953,-0.3952,-0.3952,-0.395,-0.3951,-0.3948,-0.395,-0.3948,-0.3948,-0.3947,-0.3947,-0.3947,-0.3943,-0.3948,-0.3956,-0.3957,-0.3947,-0.3947,-0.3947,0,-0.3958,-0.3958,-0.396,-0.396,-0.3958,-0.3959,-0.3958,-0.3957,-0.3957,-0.3957,-0.3957,-0.3957,-0.3956,-0.3957,-0.3954,-0.3952,-0.3956,-0.3953,-0.3956,-0.3956,-0.3956,-0.3956,-0.3964,-0.3957,-0.3957,-0.3957,-0.3957,0,-0.3964,-0.3965,-0.3962,-0.3963,-0.3965,-0.3962,-0.3964,-0.3963,-0.3962,-0.3963,-0.396,-0.3961,-0.3959,-0.3959,-0.3958,-0.3959,-0.3959,-0.3958,-0.3958,-0.3958,-0.3958,-0.3958,-0.3957,-0.3957,-0.3957,-0.3957,-0.3957,0,-0.397,-0.3968,-0.3969,-0.3968,-0.3967,-0.3969,-0.3967,-0.3968,-0.3967,-0.3968,-0.3968,-0.3966,-0.3966,-0.3964,-0.3965,-0.3964,-0.3966,-0.3965,-0.3966,-0.3966,-0.3968,-0.3968,-0.3976,-0.3977,-0.3969,-0.3969,-0.397,0,-0.3973,-0.3974,-0.3973,-0.3973,-0.3972,-0.3973,-0.3973,-0.3971,-0.3971,-0.3971,-0.3971,-0.3972,-0.3972,-0.3973,-0.3972,-0.3972,-0.3971,-0.3974,-0.3971,-0.3971,-0.397,-0.397,-0.397,-0.3974,-0.3974,-0.3974,-0.3974,0,-0.3979,-0.3978,-0.3978,-0.3978,-0.3979,-0.3978,-0.3978,-0.3979,-0.3976,-0.3977,-0.3977,-0.3977,-0.3978,-0.3978,-0.3978,-0.3978,-0.3976,-0.3975,-0.3976,-0.3976,-0.3977,-0.3976,-0.3968,-0.3975,-0.3975,-0.3975,-0.3975,-0.3975,-0.3984,-0.3985,-0.3984,-0.3984,-0.3984,-0.3984,-0.3984,-0.3983,-0.3984,-0.3984,-0.3983,-0.3984,-0.3983,-0.3983,-0.3983,-0.3983,-0.3982,-0.3983,-0.3983,-0.3983,-0.3983,-0.3977,-0.3983,-0.3983,-0.3983,-0.3983,-0.3983,0,-0.3989,-0.3989,-0.3989,-0.3989,-0.3989,-0.3988,-0.3987,-0.3988,-0.3989,-0.3988,-0.3989,-0.3989,-0.399,-0.3989,-0.3989,-0.399,-0.3989,-0.399,-0.399,-0.399,-0.3985,-0.3984,-0.3991,-0.3991,-0.3991,-0.3991,-0.3991,-0.3991,-0.3992,-0.3994,-0.3993,-0.3994,-0.3994,-0.3994,-0.3994,-0.3994,-0.3994,-0.3995,-0.3996,-0.3995,-0.3994,-0.3995,-0.3995,-0.3995,-0.3995,-0.3997,-0.3996,-0.3991,-0.399,-0.3989,-0.3989,-0.3997,-0.3997,-0.4001,-0.4001,-0.4001]}]]